[[{"header":{"parameterUnit":"m.s-1","parameterCategory":1,"la1":30.2991,"la2":30.254,"lo1":-89.0895,"lo2":-89.0444,"dx":0.0017,"dy":0.0017,"nx":28,"ny":28,"refTime":"2023-01-14T03:00:00:Z","depth":0,"parameterNumber":2,"parameterNumberName":"U-component_of_WINDS"},"data":[0,0,0,0,0,0,0,0,0,0,0,0,0,0,0,0,0,0,0,0,0,0,0,0,0,0,0,0,0,0,0,0,0,0,0,0,0,0,0,0,0,0,0,0,0,0,0,0,0,0,0,0,0,0,0,0,0,0,-1.0834,-1.0834,0,-1.0854,-1.0855,-1.0855,-1.0818,-1.0817,-1.0816,-1.0815,-1.0837,-1.0839,-1.0841,0,0,0,0,0,0,0,0,0,0,0,0,0,-1.0762,-1.0764,-1.0834,-1.0834,-1.0834,-1.0854,-1.0855,-1.0855,-1.0819,-1.0817,-1.0816,-1.0814,-1.0837,-1.0839,-1.0841,0,0,0,0,0,0,0,0,0,0,0,0,0,-1.0789,-1.0764,-1.0834,-1.0818,-1.0817,-1.0854,-1.0855,-1.0855,-1.0819,-1.0817,-1.0815,-1.0813,-1.0836,-1.0838,-1.0841,-1.0894,0,0,-1.0849,-1.085,0,0,0,0,0,0,0,0,-1.0788,-1.0792,-1.082,-1.0819,-1.0818,-1.0832,-1.0838,-1.0868,-1.0819,-1.0818,-1.0815,-1.0813,-1.0837,-1.0839,-1.0847,-1.0895,-1.0896,-1.0849,-1.0851,-1.0852,-1.0853,0,0,0,0,0,0,0,-1.0786,-1.0791,-1.0842,-1.0821,-1.082,-1.081,-1.0812,-1.0843,-1.0838,-1.0818,-1.0816,-1.0818,-1.0836,-1.0845,-1.0848,-1.0896,-1.0849,-1.0851,-1.0853,-1.0854,-1.0986,-1.0988,0,0,0,0,0,0,-1.0786,-1.079,-1.0841,-1.0842,-1.0798,-1.0813,-1.0815,-1.0829,-1.0837,-1.0837,-1.082,-1.0817,-1.0841,-1.0845,-1.0848,-1.0909,-1.0852,-1.0854,-1.0856,-1.0985,-1.0987,-1.0989,0,0,0,0,0,0,-1.0785,-1.0791,-1.084,-1.0815,-1.0821,-1.0816,-1.0833,-1.0831,-1.0839,-1.0839,-1.0838,-1.083,-1.084,-1.0845,-1.0882,-1.0909,-1.0856,-1.0858,-1.0982,-1.0985,-1.0988,-1.1032,0,0,0,0,0,0,-1.0783,-1.0791,-1.0811,-1.0816,-1.0822,-1.0874,-1.0834,-1.0832,-1.0844,-1.084,-1.0848,-1.0847,-1.0839,-1.0879,-1.0885,-1.0912,-1.086,-1.098,-1.0984,-1.0987,-1.1028,-1.1036,-1.1043,0,0,0,0,0,-1.078,-1.0823,-1.0812,-1.0819,-1.0848,-1.0876,-1.088,-1.0869,-1.0846,-1.0866,-1.0866,-1.0847,-1.0906,-1.0883,-1.089,-1.0918,-1.0978,-1.0983,-1.0987,-1.1025,-1.1035,-1.1043,0,0,0,0,0,0,-1.0823,-1.0824,-1.0811,-1.0857,-1.0867,-1.087,-1.0895,-1.088,-1.0896,-1.0891,-1.0877,-1.0879,-1.092,-1.0923,-1.0897,-1.0969,-1.0938,-1.0944,-1.0965,-1.0974,-1.0981,-1.0979,-1.0862,0,0,0,0,0,-1.0837,-1.086,-1.086,-1.0901,-1.0906,-1.09,-1.0912,-1.0902,-1.0911,-1.0915,-1.0917,-1.0927,-1.0947,-1.0961,-1.098,-1.1029,-1.1029,-1.1052,-1.1059,-1.1065,-1.107,-1.1094,-1.1103,-1.1003,-1.1003,-1.1003,0,0,-1.0868,-1.0871,-1.0887,-1.0909,-1.0915,-1.0938,-1.0903,-1.093,-1.0947,-1.092,-1.0954,-1.0956,-1.0966,-1.1009,-1.1028,-1.1013,-1.1098,-1.1071,-1.1076,-1.1077,-1.11,-1.1109,-1.1117,-1.1006,-1.1006,-1.1005,0,0,-1.0935,-1.0941,-1.0974,-1.098,-1.0989,-1.0985,-1.0993,-1.0998,-1.0998,-1.1032,-1.1012,-1.1032,-1.1068,-1.1075,-1.1083,-1.1152,-1.1134,-1.1158,-1.1197,-1.122,-1.1228,-1.1235,-1.1257,-1.1266,-1.1163,-1.1164,-1.1164,0,-1.0972,-1.1006,-1.0993,-1.1021,-1.103,-1.1006,-1.1039,-1.1046,-1.1061,-1.1068,-1.1051,-1.1094,-1.1099,-1.1142,-1.1159,-1.1167,-1.1175,-1.1157,-1.1228,-1.1235,-1.1241,-1.1262,-1.1271,-1.1166,-1.1166,-1.1166,-1.1165,0,-1.105,-1.1074,-1.11,-1.1114,-1.1127,-1.1157,-1.1148,-1.1163,-1.1152,-1.1149,-1.1184,-1.1189,-1.1207,-1.1217,-1.1208,-1.1259,-1.1249,-1.123,-1.1199,-1.1253,-1.1273,-1.1281,-1.117,-1.1169,-1.1168,-1.1168,0,0,-1.1145,-1.115,-1.1159,-1.1164,-1.1172,-1.119,-1.1219,-1.1236,-1.1248,-1.1259,-1.1282,-1.1312,-1.1294,-1.1304,-1.1295,-1.1316,-1.1367,-1.1294,-1.1294,-1.1306,-1.1421,-1.1434,-1.1444,-1.1356,-1.1358,-1.1359,-1.142,0,-1.121,-1.1259,-1.1247,-1.1295,-1.1316,-1.1292,-1.1317,-1.1324,-1.1322,-1.1339,-1.1337,-1.1358,-1.1333,-1.1338,-1.1358,-1.1357,-1.139,-1.1352,-1.1376,-1.1377,-1.1373,-1.1454,-1.1469,-1.1526,-1.1428,-1.1429,-1.143,0,-1.1293,-1.1305,-1.1355,-1.1357,-1.1365,-1.1388,-1.1401,-1.1419,-1.1426,-1.1423,-1.1433,-1.1419,-1.1447,-1.1416,-1.1453,-1.1428,-1.1437,-1.1438,-1.144,-1.144,-1.1406,-1.1456,-1.1544,-1.1552,-1.1442,-1.1441,-1.144,0,-1.1354,-1.1384,-1.1417,-1.1422,-1.1426,-1.1442,-1.1445,-1.145,-1.146,-1.1473,-1.1479,-1.1495,-1.1503,-1.1515,-1.1506,-1.1485,-1.1544,-1.1513,-1.1541,-1.1541,-1.1554,-1.1553,-1.1643,-1.1563,-1.1563,-1.1562,-1.1562,0,-1.1427,-1.1458,-1.1444,-1.1464,-1.1498,-1.1484,-1.1518,-1.1517,-1.1522,-1.1541,-1.1522,-1.1541,-1.1528,-1.1545,-1.1539,-1.1569,-1.1574,-1.1571,-1.1569,-1.1572,-1.1572,-1.1577,-1.1572,-1.1565,-1.1564,-1.1564,-1.1563,0,-1.1502,-1.1494,-1.1528,-1.1528,-1.1529,-1.1553,-1.1553,-1.1571,-1.1567,-1.1592,-1.1597,-1.1591,-1.161,-1.1602,-1.1623,-1.1618,-1.1657,-1.165,-1.1654,-1.1651,-1.1679,-1.1676,-1.1774,-1.1786,-1.17,-1.17,-1.1701,0,-1.1548,-1.1571,-1.1573,-1.1584,-1.1587,-1.1606,-1.1616,-1.1603,-1.1614,-1.1623,-1.164,-1.1657,-1.167,-1.1702,-1.1699,-1.1715,-1.1707,-1.174,-1.1709,-1.1711,-1.1705,-1.1703,-1.1705,-1.1746,-1.1747,-1.1748,-1.1749,0,-1.1631,-1.1625,-1.164,-1.1653,-1.1665,-1.1675,-1.1683,-1.1693,-1.1681,-1.1694,-1.1713,-1.1723,-1.1743,-1.176,-1.1773,-1.1776,-1.176,-1.1759,-1.1766,-1.1768,-1.1769,-1.1767,-1.1669,-1.1756,-1.1756,-1.1755,-1.1755,-1.1754,-1.1691,-1.1709,-1.1713,-1.1729,-1.1734,-1.1742,-1.1758,-1.1755,-1.1771,-1.1785,-1.1777,-1.1799,-1.1804,-1.182,-1.1824,-1.184,-1.1827,-1.1838,-1.184,-1.1843,-1.1845,-1.1768,-1.1843,-1.1843,-1.1843,-1.1842,-1.1842,0,-1.1771,-1.1771,-1.1787,-1.1798,-1.1811,-1.1794,-1.1802,-1.1814,-1.1833,-1.1839,-1.1851,-1.1872,-1.1888,-1.1886,-1.1901,-1.1914,-1.1907,-1.1918,-1.1916,-1.1916,-1.1857,-1.1849,-1.1923,-1.1923,-1.1923,-1.1923,-1.1923,-1.1923,-1.1814,-1.1843,-1.1837,-1.1868,-1.1869,-1.1889,-1.1895,-1.1901,-1.1906,-1.1929,-1.1942,-1.194,-1.1943,-1.1957,-1.197,-1.1969,-1.1975,-1.1988,-1.1985,-1.1929,-1.1921,-1.1913,-1.1905,-1.199,-1.199,-1.2042,-1.2042,-1.2043]},{"header":{"parameterUnit":"m.s-1","parameterCategory":1,"la1":30.2991,"la2":30.254,"lo1":-89.0895,"lo2":-89.0444,"dx":0.0017,"dy":0.0017,"nx":28,"ny":28,"refTime":"2023-01-14T03:00:00:Z","depth":0,"parameterNumber":3,"parameterNumberName":"V-component_of_WINDS"},"data":[0,0,0,0,0,0,0,0,0,0,0,0,0,0,0,0,0,0,0,0,0,0,0,0,0,0,0,0,0,0,0,0,0,0,0,0,0,0,0,0,0,0,0,0,0,0,0,0,0,0,0,0,0,0,0,0,0,0,-2.3296,-2.3297,0,-2.3392,-2.3393,-2.3394,-2.3398,-2.3397,-2.3395,-2.3394,-2.3491,-2.3495,-2.3499,0,0,0,0,0,0,0,0,0,0,0,0,0,-2.3114,-2.3118,-2.3296,-2.3297,-2.3298,-2.3392,-2.3393,-2.3394,-2.3398,-2.3397,-2.3395,-2.3394,-2.349,-2.3495,-2.3499,0,0,0,0,0,0,0,0,0,0,0,0,0,-2.32,-2.3119,-2.3296,-2.3312,-2.3314,-2.3392,-2.3393,-2.3395,-2.3398,-2.3397,-2.3395,-2.3393,-2.3489,-2.3494,-2.35,-2.3568,0,0,-2.3516,-2.3519,0,0,0,0,0,0,0,0,-2.3195,-2.3207,-2.3308,-2.3311,-2.3313,-2.3381,-2.3365,-2.3453,-2.3399,-2.3366,-2.3394,-2.3392,-2.3456,-2.3464,-2.3486,-2.3572,-2.3577,-2.3517,-2.352,-2.3522,-2.3524,0,0,0,0,0,0,0,-2.3189,-2.3203,-2.3334,-2.3309,-2.3313,-2.3313,-2.3323,-2.3381,-2.342,-2.3369,-2.3369,-2.3381,-2.3457,-2.3481,-2.3488,-2.3578,-2.3517,-2.3522,-2.3525,-2.3527,-2.3724,-2.3726,0,0,0,0,0,0,-2.318,-2.3198,-2.3331,-2.3337,-2.3249,-2.3318,-2.3329,-2.3361,-2.3419,-2.3426,-2.3382,-2.3381,-2.3472,-2.3482,-2.3492,-2.3575,-2.3522,-2.3528,-2.3531,-2.3722,-2.3725,-2.3727,0,0,0,0,0,0,-2.3176,-2.3192,-2.3327,-2.3267,-2.3285,-2.3323,-2.3358,-2.3364,-2.3387,-2.3429,-2.3436,-2.3399,-2.3471,-2.3484,-2.3549,-2.3578,-2.353,-2.3535,-2.372,-2.3723,-2.3726,-2.3741,0,0,0,0,0,0,-2.3171,-2.3191,-2.3218,-2.3268,-2.3288,-2.3383,-2.336,-2.3367,-2.3397,-2.3396,-2.3447,-2.3453,-2.3471,-2.354,-2.3554,-2.3585,-2.3539,-2.3717,-2.3721,-2.3725,-2.3738,-2.3744,-2.375,0,0,0,0,0,-2.3165,-2.3218,-2.3219,-2.3235,-2.3322,-2.3385,-2.3396,-2.3415,-2.3399,-2.3426,-2.3453,-2.3452,-2.3573,-2.3547,-2.3563,-2.3595,-2.3716,-2.372,-2.3724,-2.3736,-2.3743,-2.3749,0,0,0,0,0,0,-2.317,-2.3225,-2.3227,-2.3298,-2.3337,-2.3385,-2.342,-2.3423,-2.3466,-2.3463,-2.3485,-2.3496,-2.356,-2.3584,-2.3555,-2.3664,-2.3642,-2.365,-2.3646,-2.3653,-2.3658,-2.3651,-2.3544,0,0,0,0,0,-2.3179,-2.3226,-2.3272,-2.333,-2.335,-2.3381,-2.3409,-2.3421,-2.3462,-2.3478,-2.3509,-2.3548,-2.3595,-2.3626,-2.3671,-2.3742,-2.3752,-2.3772,-2.3777,-2.3782,-2.3788,-2.3826,-2.3835,-2.3741,-2.3741,-2.3741,0,0,-2.3199,-2.3235,-2.3264,-2.3332,-2.3364,-2.3411,-2.3395,-2.3446,-2.3481,-2.3485,-2.3548,-2.3573,-2.3618,-2.3686,-2.3717,-2.3708,-2.3816,-2.3787,-2.3791,-2.3794,-2.3832,-2.3841,-2.3848,-2.3744,-2.3743,-2.3743,0,0,-2.326,-2.3292,-2.3344,-2.3376,-2.3423,-2.3444,-2.3456,-2.3505,-2.3521,-2.3585,-2.3589,-2.363,-2.3711,-2.3743,-2.3769,-2.3841,-2.3841,-2.3855,-2.3884,-2.3921,-2.3929,-2.3935,-2.396,-2.3969,-2.3861,-2.3861,-2.3861,0,-2.3278,-2.335,-2.337,-2.3421,-2.3451,-2.3457,-2.3509,-2.3539,-2.3599,-2.3619,-2.3607,-2.3708,-2.3739,-2.3814,-2.3831,-2.3853,-2.3867,-2.3849,-2.3926,-2.3933,-2.394,-2.3963,-2.3973,-2.3863,-2.3863,-2.3862,-2.3862,0,-2.337,-2.342,-2.3456,-2.3514,-2.3548,-2.3599,-2.3626,-2.3658,-2.3666,-2.3688,-2.3752,-2.3789,-2.3842,-2.386,-2.3869,-2.3937,-2.3929,-2.3922,-2.39,-2.3949,-2.3972,-2.3981,-2.3864,-2.3864,-2.3864,-2.3863,0,0,-2.3437,-2.3504,-2.3517,-2.3543,-2.3596,-2.3634,-2.3686,-2.3737,-2.3763,-2.3805,-2.3847,-2.3915,-2.3908,-2.3939,-2.3951,-2.3984,-2.4037,-2.3972,-2.3974,-2.3982,-2.4112,-2.4117,-2.4127,-2.4038,-2.404,-2.4041,-2.4108,0,-2.3502,-2.3593,-2.3612,-2.3691,-2.3737,-2.3743,-2.3788,-2.3825,-2.3846,-2.3887,-2.3911,-2.3958,-2.3947,-2.3965,-2.3997,-2.4023,-2.4063,-2.4019,-2.4077,-2.4079,-2.4065,-2.4139,-2.4144,-2.4205,-2.4117,-2.4119,-2.412,0,-2.359,-2.3633,-2.3717,-2.3763,-2.3783,-2.3822,-2.3871,-2.391,-2.3952,-2.3965,-2.3999,-2.4008,-2.406,-2.4037,-2.4109,-2.4079,-2.4104,-2.412,-2.4123,-2.4128,-2.4102,-2.4145,-2.4226,-2.4234,-2.4134,-2.4133,-2.4132,0,-2.3629,-2.3708,-2.3768,-2.379,-2.3845,-2.3873,-2.3897,-2.3937,-2.3967,-2.4009,-2.4028,-2.4076,-2.4102,-2.4138,-2.4159,-2.4141,-2.423,-2.4209,-2.4242,-2.4241,-2.426,-2.4258,-2.4344,-2.4277,-2.4277,-2.4277,-2.4277,0,-2.3699,-2.375,-2.3785,-2.3822,-2.3879,-2.39,-2.3955,-2.3979,-2.4014,-2.4055,-2.4064,-2.4102,-2.4128,-2.417,-2.4187,-2.4244,-2.4256,-2.4267,-2.4271,-2.4266,-2.4264,-2.4282,-2.4278,-2.4279,-2.4279,-2.4278,-2.4278,0,-2.3752,-2.3778,-2.3843,-2.389,-2.3903,-2.3943,-2.3983,-2.4018,-2.404,-2.4091,-2.4105,-2.4139,-2.4188,-2.4213,-2.4274,-2.4286,-2.4349,-2.4351,-2.4335,-2.4337,-2.4368,-2.4364,-2.4468,-2.4482,-2.4406,-2.4407,-2.4407,0,-2.3794,-2.3833,-2.3885,-2.3913,-2.3938,-2.3983,-2.4013,-2.4036,-2.4066,-2.4117,-2.4146,-2.4196,-2.4237,-2.4315,-2.4345,-2.4392,-2.4394,-2.4427,-2.4401,-2.4395,-2.4393,-2.439,-2.4394,-2.4431,-2.4432,-2.4433,-2.4433,0,-2.3867,-2.3878,-2.3921,-2.3969,-2.4005,-2.4044,-2.4082,-2.4104,-2.4133,-2.4167,-2.4217,-2.4249,-2.4312,-2.4361,-2.441,-2.4435,-2.4438,-2.4441,-2.4451,-2.4446,-2.4435,-2.444,-2.4347,-2.4438,-2.4438,-2.4438,-2.4437,-2.4437,-2.3916,-2.395,-2.3991,-2.4039,-2.407,-2.4105,-2.4141,-2.4167,-2.4209,-2.4262,-2.4273,-2.4326,-2.4366,-2.4433,-2.4459,-2.45,-2.4493,-2.4508,-2.4511,-2.4514,-2.4515,-2.4429,-2.4509,-2.4509,-2.4509,-2.4509,-2.4509,0,-2.3988,-2.4015,-2.4059,-2.4111,-2.4149,-2.4149,-2.4191,-2.4222,-2.4269,-2.4307,-2.4347,-2.4405,-2.4452,-2.4486,-2.4534,-2.4561,-2.4564,-2.4573,-2.457,-2.4576,-2.452,-2.4506,-2.4569,-2.4569,-2.4569,-2.4569,-2.4569,-2.4569,-2.403,-2.4088,-2.4104,-2.4177,-2.4203,-2.4256,-2.428,-2.4312,-2.4342,-2.4406,-2.4445,-2.4467,-2.4503,-2.4553,-2.4597,-2.4605,-2.4622,-2.4631,-2.4639,-2.4586,-2.458,-2.4574,-2.4561,-2.4635,-2.4635,-2.4692,-2.4693,-2.4693]}]]